| time (UTC) | temp C | wind direction | speed KPH | gust KPH | rain 1hr cm | rain 24hr cm | rain mn cm | humidity % | barometer mb |
| 20260506113025 | 16 | 271 | 0.0 | 0.0 | 0.00 | 0.00 | 0.00 | 68 | 1006.8 |
| 20260506112025 | 17 | 271 | 0.0 | 0.0 | 0.00 | 0.00 | 0.00 | 67 | 1006.9 |
| 20260506111025 | 17 | 271 | 0.0 | 0.0 | 0.00 | 0.00 | 0.00 | 64 | 1006.7 |
| 20260506110025 | 17 | 270 | 0.0 | 0.0 | 0.00 | 0.00 | 0.00 | 60 | 1006.6 |
| 20260506105025 | 17 | 271 | 0.0 | 0.0 | 0.00 | 0.00 | 0.00 | 60 | 1006.4 |
| 20260506104025 | 17 | 271 | 0.0 | 4.8 | 0.00 | 0.00 | 0.00 | 60 | 1006.3 |
| 20260506103025 | 18 | 271 | 0.0 | 4.8 | 0.00 | 0.00 | 0.00 | 60 | 1006.2 |
| 20260506102025 | 18 | 231 | 1.6 | 8.0 | 0.00 | 0.00 | 0.00 | 60 | 1006.4 |
| 20260506101025 | 18 | 160 | 3.2 | 8.0 | 0.00 | 0.00 | 0.00 | 60 | 1006.0 |
| 20260506095025 | 18 | 156 | 3.2 | 12.9 | 0.00 | 0.00 | 0.00 | 57 | 1006.1 |
| 20260506093025 | 18 | 165 | 3.2 | 8.0 | 0.00 | 0.00 | 0.00 | 55 | 1006.1 |
| 20260506092025 | 18 | 163 | 3.2 | 4.8 | 0.00 | 0.00 | 0.00 | 54 | 1006.0 |
| 20260506091025 | 18 | 156 | 1.6 | 4.8 | 0.00 | 0.00 | 0.00 | 54 | 1006.2 |
| 20260506090025 | 18 | 175 | 1.6 | 4.8 | 0.00 | 0.00 | 0.00 | 54 | 1006.1 |
| 20260506085025 | 18 | 164 | 0.0 | 4.8 | 0.00 | 0.00 | 0.00 | 53 | 1006.2 |
| 20260506084025 | 18 | 170 | 0.0 | 4.8 | 0.00 | 0.00 | 0.00 | 53 | 1006.2 |
| 20260506082024 | 18 | 191 | 1.6 | 8.0 | 0.00 | 0.00 | 0.00 | 52 | 1006.2 |
| 20260506081025 | 18 | 200 | 0.0 | 4.8 | 0.00 | 0.00 | 0.00 | 53 | 1006.4 |
| 20260506073025 | 18 | 181 | 3.2 | 4.8 | 0.00 | 0.00 | 0.00 | 49 | 1006.4 |
| 20260506072025 | 18 | 190 | 3.2 | 8.0 | 0.00 | 0.00 | 0.00 | 49 | 1006.4 |
| 20260506071025 | 18 | 174 | 3.2 | 4.8 | 0.00 | 0.00 | 0.00 | 49 | 1006.3 |
| 20260506062026 | 19 | 166 | 3.2 | 8.0 | 0.00 | 0.00 | 0.00 | 48 | 1006.9 |
| 20260506061025 | 19 | 168 | 1.6 | 4.8 | 0.00 | 0.00 | 0.00 | 47 | 1007.1 |
| 20260506051025 | 19 | 164 | 4.8 | 8.0 | 0.00 | 0.00 | 0.00 | 47 | 1007.6 |
| 20260506045025 | 19 | 161 | 3.2 | 9.7 | 0.00 | 0.00 | 0.00 | 48 | 1007.7 |
| 20260506044025 | 19 | 164 | 3.2 | 8.0 | 0.00 | 0.00 | 0.00 | 49 | 1007.7 |
| 20260506043025 | 19 | 162 | 3.2 | 4.8 | 0.00 | 0.00 | 0.00 | 49 | 1007.5 |
| 20260506042025 | 20 | 168 | 3.2 | 8.0 | 0.00 | 0.00 | 0.00 | 48 | 1007.4 |
| 20260506041025 | 20 | 164 | 3.2 | 4.8 | 0.00 | 0.00 | 0.00 | 48 | 1007.5 |
| 20260506040025 | 20 | 160 | 1.6 | 4.8 | 0.00 | 0.00 | 0.00 | 49 | 1007.7 |
| 20260506033024 | 20 | 170 | 1.6 | 4.8 | 0.00 | 0.00 | 0.00 | 50 | 1007.8 |
| 20260506032024 | 20 | 172 | 1.6 | 4.8 | 0.00 | 0.00 | 0.00 | 51 | 1007.7 |
| 20260506031025 | 20 | 170 | 1.6 | 4.8 | 0.00 | 0.00 | 0.00 | 53 | 1007.8 |
| 20260506030025 | 20 | 183 | 0.0 | 4.8 | 0.00 | 0.00 | 0.00 | 54 | 1007.8 |
| 20260506025025 | 20 | 163 | 0.0 | 0.0 | 0.00 | 0.00 | 0.00 | 55 | 1007.9 |
| 20260506024025 | 20 | 163 | 1.6 | 4.8 | 0.00 | 0.00 | 0.00 | 54 | 1007.9 |
| 20260506023025 | 20 | 170 | 1.6 | 3.2 | 0.00 | 0.00 | 0.00 | 54 | 1007.9 |
| 20260506022025 | 20 | 177 | 0.0 | 3.2 | 0.00 | 0.00 | 0.00 | 53 | 1008.0 |
| 20260506021025 | 20 | 177 | 1.6 | 3.2 | 0.00 | 0.00 | 0.00 | 53 | 1008.0 |
| 20260506020025 | 20 | 177 | 0.0 | 0.0 | 0.00 | 0.00 | 0.00 | 54 | 1007.9 |
| 20260506015025 | 20 | 177 | 0.0 | 0.0 | 0.00 | 0.00 | 0.00 | 54 | 1007.8 |
| 20260506014025 | 20 | 187 | 0.0 | 0.0 | 0.00 | 0.00 | 0.00 | 53 | 1007.9 |
| 20260506013025 | 20 | 193 | 0.0 | 1.6 | 0.00 | 0.00 | 0.00 | 53 | 1007.8 |
| 20260506012025 | 20 | 160 | 0.0 | 3.2 | 0.00 | 0.00 | 0.00 | 53 | 1007.9 |
| 20260506011025 | 20 | 189 | 0.0 | 1.6 | 0.00 | 0.00 | 0.00 | 53 | 1007.8 |
| 20260506005025 | 20 | 191 | 0.0 | 1.6 | 0.00 | 0.00 | 0.00 | 53 | 1007.5 |
| 20260506004025 | 21 | 285 | 0.0 | 0.0 | 0.00 | 0.00 | 0.00 | 52 | 1007.4 |
| 20260506003025 | 21 | 285 | 0.0 | 1.6 | 0.00 | 0.00 | 0.00 | 50 | 1007.3 |
| 20260506002025 | 21 | 303 | 0.0 | 3.2 | 0.00 | 0.00 | 0.00 | 50 | 1007.2 |
| 20260506001025 | 21 | 289 | 0.0 | 4.8 | 0.00 | 0.00 | 0.00 | 48 | 1007.1 |
| 20260506000025 | 22 | 315 | 3.2 | 9.7 | 0.00 | 0.00 | 0.00 | 48 | 1007.0 |
| 20260505235025 | 22 | 328 | 4.8 | 12.9 | 0.00 | 0.00 | 0.00 | 46 | 1007.0 |
| 20260505234025 | 22 | 299 | 6.4 | 12.9 | 0.00 | 0.00 | 0.00 | 45 | 1006.9 |
| 20260505232025 | 23 | 341 | 3.2 | 9.7 | 0.00 | 0.00 | 0.00 | 43 | 1006.7 |
| 20260505231025 | 23 | 243 | 1.6 | 9.7 | 0.00 | 0.00 | 0.00 | 44 | 1006.6 |
| 20260505230025 | 23 | 207 | 3.2 | 8.0 | 0.00 | 0.00 | 0.00 | 44 | 1006.4 |
| 20260505225025 | 23 | 216 | 1.6 | 9.7 | 0.00 | 0.00 | 0.00 | 45 | 1006.3 |
| 20260505224025 | 23 | 214 | 3.2 | 11.3 | 0.00 | 0.00 | 0.00 | 43 | 1006.3 |
| 20260505223025 | 23 | 163 | 6.4 | 16.1 | 0.00 | 0.00 | 0.00 | 41 | 1006.4 |
| 20260505222025 | 23 | 158 | 3.2 | 11.3 | 0.00 | 0.00 | 0.00 | 41 | 1006.3 |
| 20260505221025 | 23 | 177 | 3.2 | 9.7 | 0.00 | 0.00 | 0.00 | 41 | 1006.2 |
| 20260505220025 | 24 | 168 | 4.8 | 14.5 | 0.00 | 0.00 | 0.00 | 41 | 1006.1 |
| 20260505215025 | 24 | 176 | 3.2 | 14.5 | 0.00 | 0.00 | 0.00 | 40 | 1005.8 |
| 20260505213025 | 25 | 208 | 3.2 | 14.5 | 0.00 | 0.00 | 0.00 | 39 | 1005.7 |
| 20260505212025 | 25 | 174 | 8.0 | 25.7 | 0.00 | 0.00 | 0.00 | 37 | 1005.8 |
| 20260505211025 | 25 | 144 | 3.2 | 19.3 | 0.00 | 0.00 | 0.00 | 37 | 1005.8 |
| 20260505210024 | 25 | 145 | 3.2 | 19.3 | 0.00 | 0.00 | 0.00 | 37 | 1005.8 |
| 20260505205025 | 25 | 178 | 6.4 | 22.5 | 0.00 | 0.00 | 0.00 | 36 | 1005.7 |
| 20260505204025 | 25 | 193 | 8.0 | 20.9 | 0.00 | 0.00 | 0.00 | 36 | 1005.7 |
| 20260505203025 | 25 | 152 | 9.7 | 19.3 | 0.00 | 0.00 | 0.00 | 36 | 1005.7 |
| 20260505202025 | 25 | 207 | 9.7 | 19.3 | 0.00 | 0.00 | 0.00 | 36 | 1005.7 |
| 20260505201025 | 25 | 166 | 6.4 | 27.4 | 0.00 | 0.00 | 0.00 | 37 | 1005.8 |
| 20260505200025 | 25 | 151 | 9.7 | 19.3 | 0.00 | 0.00 | 0.00 | 36 | 1005.8 |
| 20260505195025 | 26 | 143 | 9.7 | 19.3 | 0.00 | 0.00 | 0.00 | 36 | 1005.7 |
| 20260505194025 | 26 | 258 | 9.7 | 20.9 | 0.00 | 0.00 | 0.00 | 36 | 1005.7 |
| 20260505193025 | 26 | 150 | 11.3 | 25.7 | 0.00 | 0.00 | 0.00 | 36 | 1005.9 |
| 20260505192025 | 26 | 139 | 9.7 | 24.1 | 0.00 | 0.00 | 0.00 | 38 | 1005.9 |
| 20260505191025 | 26 | 216 | 9.7 | 20.9 | 0.00 | 0.00 | 0.00 | 38 | 1006.0 |
| 20260505190026 | 26 | 164 | 9.7 | 20.9 | 0.00 | 0.00 | 0.00 | 39 | 1006.2 |
| 20260505184025 | 26 | 212 | 9.7 | 19.3 | 0.00 | 0.00 | 0.00 | 41 | 1006.7 |
| 20260505182025 | 25 | 178 | 9.7 | 24.1 | 0.00 | 0.00 | 0.00 | 42 | 1006.9 |
| 20260505181024 | 25 | 189 | 8.0 | 22.5 | 0.00 | 0.00 | 0.00 | 43 | 1007.1 |
| 20260505180025 | 25 | 247 | 4.8 | 25.7 | 0.00 | 0.00 | 0.00 | 42 | 1007.3 |
| 20260505175025 | 25 | 167 | 4.8 | 19.3 | 0.00 | 0.00 | 0.00 | 41 | 1007.3 |
| 20260505174025 | 26 | 215 | 4.8 | 25.7 | 0.00 | 0.00 | 0.00 | 40 | 1007.3 |
| 20260505172025 | 26 | 176 | 8.0 | 14.5 | 0.00 | 0.00 | 0.00 | 41 | 1007.5 |
| 20260505171025 | 25 | 154 | 8.0 | 14.5 | 0.00 | 0.00 | 0.00 | 44 | 1007.4 |
| 20260505170025 | 25 | 156 | 4.8 | 27.4 | 0.00 | 0.00 | 0.00 | 46 | 1007.5 |
| 20260505165024 | 25 | 160 | 8.0 | 19.3 | 0.00 | 0.00 | 0.00 | 44 | 1007.8 |
| 20260505164025 | 25 | 156 | 4.8 | 19.3 | 0.00 | 0.00 | 0.00 | 45 | 1008.1 |
| 20260505163025 | 25 | 164 | 8.0 | 19.3 | 0.00 | 0.00 | 0.00 | 44 | 1008.2 |
| 20260505162025 | 25 | 139 | 4.8 | 19.3 | 0.00 | 0.00 | 0.00 | 45 | 1008.3 |
| 20260505152024 | 24 | 224 | 8.0 | 16.1 | 0.00 | 0.00 | 0.00 | 45 | 1008.8 |
| 20260505151025 | 23 | 210 | 6.4 | 20.9 | 0.00 | 0.00 | 0.00 | 46 | 1008.9 |
| 20260505125024 | 19 | 208 | 4.8 | 12.9 | 0.00 | 0.00 | 0.00 | 58 | 1009.4 |
| 20260505124025 | 18 | 170 | 3.2 | 8.0 | 0.00 | 0.00 | 0.00 | 60 | 1009.3 |
| 20260505122025 | 17 | 204 | 0.0 | 3.2 | 0.00 | 0.00 | 0.00 | 64 | 1009.2 |
| 20260505120025 | 16 | 211 | 0.0 | 4.8 | 0.00 | 0.00 | 0.00 | 65 | 1009.2 |
| 20260505115025 | 16 | 177 | 0.0 | 4.8 | 0.00 | 0.00 | 0.00 | 66 | 1009.3 |